Location: Six Mile Lake
(44.9000°N, 79.7170°W)
Time: 21:01:51
(UTC-04:00)

NOAA 18 - Pass Details

Date: 07 July 2022
Orbit: 839 x 860 km, 98.9° (Epoch: 15 August)

Event Time Altitude Azimuth Distance (km) Brightness Sun altitude
Exits shadow 00:25:37 - 232° (SW) 2,544 7.5 -21.2°
Reaches altitude 10° 00:25:53 10° 234° (SW) 2,483 7.4 -21.2°
Maximum altitude 00:29:08 16° 271° (W) 2,108 7.4 -21.4°
Drops below altitude 10° 00:32:24 10° 307° (NW) 2,501 8.3 -21.5°
Sets 00:35:50 0° 329° (NNW) 3,446 9.6 -21.6°
